Time,TemperatureF,DewpointF,PressureIn,WindDirection,WindDirectionDegrees,WindSpeedMPH,WindSpeedGustMPH,Humidity,HourlyPrecipIn,Conditions,Clouds,dailyrainin,SolarRadiationWatts/m^2,SoftwareType,DateUTC
2013-09-13 00:06:00,56.0,53.7,29.81,SE,136,0.0,0.0,92,0.00,,,0.00,0,Wunderground v.1.15,2013-09-13 06:06:00,
2013-09-13 00:13:00,56.0,53.7,29.81,SE,136,0.0,0.0,92,0.00,,,0.01,0,Wunderground v.1.15,2013-09-13 06:13:00,
2013-09-13 00:18:00,56.0,53.7,29.80,SE,145,4.0,4.0,92,0.00,,,0.01,0,Wunderground v.1.15,2013-09-13 06:18:00,
2013-09-13 00:23:00,56.0,53.7,29.80,SSE,155,4.0,8.0,92,0.00,,,0.01,0,Wunderground v.1.15,2013-09-13 06:23:00,
2013-09-13 00:28:00,56.0,53.7,29.80,SSE,150,9.0,9.0,92,0.00,,,0.01,0,Wunderground v.1.15,2013-09-13 06:28:00,
2013-09-13 00:33:00,56.0,53.7,29.80,SSE,150,4.0,8.0,92,0.00,,,0.01,0,Wunderground v.1.15,2013-09-13 06:33:00,
2013-09-13 00:39:00,56.0,53.7,29.80,SSE,149,7.0,8.0,92,0.00,,,0.01,0,Wunderground v.1.15,2013-09-13 06:39:00,
2013-09-13 00:44:00,55.9,53.9,29.79,SSE,148,10.0,10.0,93,0.00,,,0.01,0,Wunderground v.1.15,2013-09-13 06:44:00,
2013-09-13 00:50:00,55.9,53.9,29.79,SE,138,6.0,9.0,93,0.00,,,0.01,0,Wunderground v.1.15,2013-09-13 06:50:00,
2013-09-13 00:56:00,55.9,53.9,29.79,SE,136,7.0,9.0,93,0.00,,,0.01,0,Wunderground v.1.15,2013-09-13 06:56:00,
2013-09-13 01:03:00,55.9,53.9,29.78,SE,126,4.0,11.0,93,0.00,,,0.01,0,Wunderground v.1.15,2013-09-13 07:03:00,
2013-09-13 01:08:00,55.9,53.9,29.78,SE,127,7.0,11.0,93,0.00,,,0.01,0,Wunderground v.1.15,2013-09-13 07:08:00,
2013-09-13 01:13:00,55.7,53.7,29.78,ESE,121,6.0,7.0,93,0.00,,,0.01,0,Wunderground v.1.15,2013-09-13 07:13:00,
2013-09-13 01:18:00,55.7,53.7,29.77,ESE,117,8.0,11.0,93,0.00,,,0.01,0,Wunderground v.1.15,2013-09-13 07:18:00,
2013-09-13 01:23:00,55.6,53.6,29.77,ESE,115,5.0,7.0,93,0.00,,,0.01,0,Wunderground v.1.15,2013-09-13 07:23:00,
2013-09-13 01:29:00,55.4,53.4,29.77,ESE,115,4.0,7.0,93,0.00,,,0.01,0,Wunderground v.1.15,2013-09-13 07:29:00,
2013-09-13 01:34:00,55.4,53.4,29.77,ESE,115,4.0,6.0,93,0.00,,,0.01,0,Wunderground v.1.15,2013-09-13 07:34:00,
2013-09-13 01:40:00,55.3,53.3,29.77,ESE,115,2.0,6.0,93,0.00,,,0.01,0,Wunderground v.1.15,2013-09-13 07:40:00,
2013-09-13 01:46:00,55.3,53.3,29.76,ESE,116,4.0,7.0,93,0.00,,,0.01,0,Wunderground v.1.15,2013-09-13 07:46:00,
2013-09-13 01:53:00,55.3,53.3,29.76,ESE,117,6.0,6.0,93,0.00,,,0.01,0,Wunderground v.1.15,2013-09-13 07:53:00,
2013-09-13 01:58:00,55.1,53.1,29.76,ESE,119,5.0,8.0,93,0.00,,,0.01,0,Wunderground v.1.15,2013-09-13 07:58:00,
2013-09-13 02:03:00,55.1,53.1,29.76,ESE,119,2.0,8.0,93,0.00,,,0.01,0,Wunderground v.1.15,2013-09-13 08:03:00,
2013-09-13 02:08:00,55.1,53.1,29.76,ESE,120,2.0,8.0,93,0.00,,,0.01,0,Wunderground v.1.15,2013-09-13 08:08:00,
2013-09-13 02:14:00,55.0,53.0,29.76,ESE,120,0.0,6.0,93,0.00,,,0.01,0,Wunderground v.1.15,2013-09-13 08:14:00,
2013-09-13 02:19:00,55.0,53.0,29.76,ESE,120,0.0,6.0,93,0.00,,,0.01,0,Wunderground v.1.15,2013-09-13 08:19:00,
2013-09-13 02:24:00,55.0,53.3,29.76,ESE,120,0.0,1.0,94,0.00,,,0.01,0,Wunderground v.1.15,2013-09-13 08:24:00,
2013-09-13 02:29:00,55.1,53.4,29.76,ESE,121,4.0,6.0,94,0.00,,,0.01,0,Wunderground v.1.15,2013-09-13 08:29:00,
2013-09-13 02:34:00,55.1,53.4,29.76,SE,138,4.0,9.0,94,0.00,,,0.01,0,Wunderground v.1.15,2013-09-13 08:34:00,
2013-09-13 02:39:00,55.1,53.4,29.76,SE,139,2.0,9.0,94,0.00,,,0.01,0,Wunderground v.1.15,2013-09-13 08:39:00,
2013-09-13 02:44:00,55.0,53.3,29.75,SE,146,6.0,11.0,94,0.00,,,0.01,0,Wunderground v.1.15,2013-09-13 08:44:00,
2013-09-13 02:49:00,55.0,53.3,29.75,SSE,150,9.0,14.0,94,0.00,,,0.01,0,Wunderground v.1.15,2013-09-13 08:49:00,
2013-09-13 02:54:00,55.0,53.3,29.75,SE,142,9.0,14.0,94,0.00,,,0.01,0,Wunderground v.1.15,2013-09-13 08:54:00,
2013-09-13 02:59:00,55.0,53.3,29.74,SE,140,9.0,14.0,94,0.00,,,0.01,0,Wunderground v.1.15,2013-09-13 08:59:00,
2013-09-13 03:04:00,55.0,53.3,29.74,SE,136,15.0,15.0,94,0.00,,,0.01,0,Wunderground v.1.15,2013-09-13 09:04:00,
2013-09-13 03:09:00,55.0,53.3,29.74,SE,139,13.0,17.0,94,0.00,,,0.01,0,Wunderground v.1.15,2013-09-13 09:09:00,
2013-09-13 03:14:00,55.0,53.3,29.74,SSE,147,10.0,17.0,94,0.00,,,0.01,0,Wunderground v.1.15,2013-09-13 09:14:00,
2013-09-13 03:19:00,55.0,53.3,29.74,SE,146,6.0,17.0,94,0.00,,,0.01,0,Wunderground v.1.15,2013-09-13 09:19:00,
2013-09-13 03:24:00,54.8,53.1,29.74,SSE,157,8.0,11.0,94,0.00,,,0.01,0,Wunderground v.1.15,2013-09-13 09:24:00,
2013-09-13 03:29:00,54.7,53.0,29.75,SSE,163,9.0,11.0,94,0.00,,,0.01,0,Wunderground v.1.15,2013-09-13 09:29:00,
2013-09-13 03:34:00,54.7,53.0,29.75,SSE,163,8.0,13.0,94,0.00,,,0.02,0,Wunderground v.1.15,2013-09-13 09:34:00,
2013-09-13 03:39:00,54.7,53.0,29.75,SSE,166,8.0,13.0,94,0.00,,,0.02,0,Wunderground v.1.15,2013-09-13 09:39:00,
2013-09-13 03:44:00,54.7,53.0,29.75,SSE,164,12.0,13.0,94,0.00,,,0.02,0,Wunderground v.1.15,2013-09-13 09:44:00,
2013-09-13 03:49:00,54.7,53.0,29.75,SSE,158,9.0,13.0,94,0.00,,,0.02,0,Wunderground v.1.15,2013-09-13 09:49:00,
2013-09-13 03:54:00,54.7,53.0,29.75,SSE,159,6.0,11.0,94,0.00,,,0.02,0,Wunderground v.1.15,2013-09-13 09:54:00,
2013-09-13 03:59:00,54.7,53.0,29.74,SSE,158,8.0,11.0,94,0.00,,,0.02,0,Wunderground v.1.15,2013-09-13 09:59:00,
2013-09-13 04:04:00,54.7,53.0,29.74,SSE,150,11.0,15.0,94,0.00,,,0.02,0,Wunderground v.1.15,2013-09-13 10:04:00,
2013-09-13 04:09:00,54.7,53.0,29.74,SSE,150,10.0,15.0,94,0.00,,,0.02,0,Wunderground v.1.15,2013-09-13 10:09:00,
2013-09-13 04:14:00,54.7,53.0,29.74,SSE,150,9.0,14.0,94,0.00,,,0.02,0,Wunderground v.1.15,2013-09-13 10:14:00,
2013-09-13 04:19:00,54.7,53.0,29.74,SSE,149,9.0,14.0,94,0.00,,,0.02,0,Wunderground v.1.15,2013-09-13 10:19:00,
2013-09-13 04:24:00,54.7,53.0,29.74,SE,146,10.0,14.0,94,0.00,,,0.02,0,Wunderground v.1.15,2013-09-13 10:24:00,
2013-09-13 04:29:00,54.7,53.0,29.73,SE,145,6.0,14.0,94,0.00,,,0.02,0,Wunderground v.1.15,2013-09-13 10:29:00,
2013-09-13 04:34:00,54.7,53.0,29.73,SSE,152,6.0,12.0,94,0.00,,,0.02,0,Wunderground v.1.15,2013-09-13 10:34:00,
2013-09-13 04:39:00,54.7,53.0,29.73,SSE,154,8.0,14.0,94,0.00,,,0.02,0,Wunderground v.1.15,2013-09-13 10:39:00,
2013-09-13 04:44:00,54.7,53.0,29.74,SSE,157,8.0,10.0,94,0.00,,,0.02,0,Wunderground v.1.15,2013-09-13 10:44:00,
2013-09-13 04:49:00,54.7,53.0,29.74,SSE,157,5.0,11.0,94,0.00,,,0.02,0,Wunderground v.1.15,2013-09-13 10:49:00,
2013-09-13 04:54:00,54.5,52.8,29.74,SSE,157,6.0,10.0,94,0.00,,,0.02,0,Wunderground v.1.15,2013-09-13 10:54:00,
2013-09-13 04:59:00,54.5,52.8,29.74,SSE,158,6.0,10.0,94,0.00,,,0.02,0,Wunderground v.1.15,2013-09-13 10:59:00,
2013-09-13 05:04:00,54.5,52.8,29.74,SSE,158,6.0,7.0,94,0.00,,,0.02,0,Wunderground v.1.15,2013-09-13 11:04:00,
2013-09-13 05:09:00,54.5,52.8,29.74,SSE,158,2.0,7.0,94,0.00,,,0.02,0,Wunderground v.1.15,2013-09-13 11:09:00,
2013-09-13 05:14:00,54.5,52.8,29.74,SSE,158,6.0,7.0,94,0.00,,,0.02,0,Wunderground v.1.15,2013-09-13 11:14:00,
2013-09-13 05:19:00,54.5,52.8,29.74,SSE,158,4.0,7.0,94,0.00,,,0.02,0,Wunderground v.1.15,2013-09-13 11:19:00,
2013-09-13 05:24:00,54.5,52.8,29.74,SSE,158,5.0,7.0,94,0.00,,,0.02,0,Wunderground v.1.15,2013-09-13 11:24:00,
2013-09-13 05:29:00,54.5,52.8,29.73,SSE,158,5.0,7.0,94,0.00,,,0.02,0,Wunderground v.1.15,2013-09-13 11:29:00,
2013-09-13 05:35:00,54.5,52.8,29.73,SSE,158,5.0,7.0,94,0.00,,,0.02,0,Wunderground v.1.15,2013-09-13 11:35:00,
2013-09-13 05:40:00,54.5,52.8,29.73,SSE,158,4.0,5.0,94,0.00,,,0.03,0,Wunderground v.1.15,2013-09-13 11:40:00,
2013-09-13 05:45:00,54.4,52.7,29.73,SSE,158,2.0,5.0,94,0.00,,,0.03,0,Wunderground v.1.15,2013-09-13 11:45:00,
2013-09-13 05:50:00,54.4,52.7,29.73,SSE,159,5.0,5.0,94,0.00,,,0.03,0,Wunderground v.1.15,2013-09-13 11:50:00,
2013-09-13 05:55:00,54.2,52.5,29.73,SSE,158,6.0,6.0,94,0.00,,,0.03,0,Wunderground v.1.15,2013-09-13 11:55:00,
2013-09-13 06:00:00,54.2,52.5,29.73,SSE,158,7.0,7.0,94,0.00,,,0.03,0,Wunderground v.1.15,2013-09-13 12:00:00,
2013-09-13 06:05:00,54.2,52.5,29.73,SSE,159,7.0,8.0,94,0.00,,,0.03,0,Wunderground v.1.15,2013-09-13 12:05:00,
2013-09-13 06:10:00,54.1,52.4,29.73,SSE,164,7.0,12.0,94,0.00,,,0.03,0,Wunderground v.1.15,2013-09-13 12:10:00,
2013-09-13 06:15:00,54.1,52.4,29.74,SSE,161,8.0,12.0,94,0.00,,,0.03,0,Wunderground v.1.15,2013-09-13 12:15:00,
2013-09-13 06:20:00,54.1,52.4,29.74,SSE,156,6.0,9.0,94,0.00,,,0.03,0,Wunderground v.1.15,2013-09-13 12:20:00,
2013-09-13 06:26:00,53.9,52.2,29.74,SSE,162,5.0,10.0,94,0.00,,,0.03,0,Wunderground v.1.15,2013-09-13 12:26:00,
2013-09-13 06:31:00,53.9,52.2,29.74,SSE,167,9.0,10.0,94,0.18,,,0.27,0,Wunderground v.1.15,2013-09-13 12:31:00,
2013-09-13 06:36:00,53.8,52.1,29.74,SSE,165,8.0,13.0,94,0.07,,,0.27,0,Wunderground v.1.15,2013-09-13 12:36:00,
2013-09-13 06:41:00,53.8,52.1,29.74,SSE,165,7.0,7.0,94,0.04,,,0.27,0,Wunderground v.1.15,2013-09-13 12:41:00,
2013-09-13 06:46:00,53.6,51.9,29.74,SSE,165,6.0,9.0,94,0.00,,,0.27,0,Wunderground v.1.15,2013-09-13 12:46:00,
2013-09-13 06:51:00,53.6,51.9,29.74,SSE,165,6.0,7.0,94,0.00,,,0.27,0,Wunderground v.1.15,2013-09-13 12:51:00,
2013-09-13 06:56:00,53.5,51.8,29.74,SSE,165,5.0,7.0,94,0.00,,,0.27,0,Wunderground v.1.15,2013-09-13 12:56:00,
2013-09-13 07:01:00,53.5,51.8,29.74,SSE,165,6.0,7.0,94,0.00,,,0.27,5,Wunderground v.1.15,2013-09-13 13:01:00,
2013-09-13 07:06:00,53.3,51.6,29.74,SSE,165,7.0,9.0,94,0.00,,,0.27,7,Wunderground v.1.15,2013-09-13 13:06:00,
2013-09-13 07:11:00,53.3,51.6,29.74,SSE,164,5.0,7.0,94,0.00,,,0.27,9,Wunderground v.1.15,2013-09-13 13:11:00,
2013-09-13 07:16:00,53.3,51.6,29.74,SSE,164,4.0,7.0,94,0.00,,,0.27,11,Wunderground v.1.15,2013-09-13 13:16:00,
2013-09-13 07:21:00,53.2,51.5,29.74,SSE,163,5.0,6.0,94,0.00,,,0.27,12,Wunderground v.1.15,2013-09-13 13:21:00,
2013-09-13 07:26:00,53.2,51.5,29.74,SSE,163,6.0,7.0,94,0.00,,,0.27,30,Wunderground v.1.15,2013-09-13 13:26:00,
2013-09-13 07:31:00,53.1,51.4,29.75,SSE,162,7.0,7.0,94,0.00,,,0.27,33,Wunderground v.1.15,2013-09-13 13:31:00,
2013-09-13 07:36:00,53.1,51.4,29.75,SSE,162,2.0,7.0,94,0.00,,,0.27,54,Wunderground v.1.15,2013-09-13 13:36:00,
2013-09-13 07:41:00,53.1,51.4,29.75,SSE,162,6.0,8.0,94,0.00,,,0.27,60,Wunderground v.1.15,2013-09-13 13:41:00,
2013-09-13 07:46:00,53.1,51.4,29.74,SSE,161,6.0,8.0,94,0.00,,,0.27,60,Wunderground v.1.15,2013-09-13 13:46:00,
2013-09-13 07:51:00,53.2,51.5,29.74,SSE,161,4.0,7.0,94,0.00,,,0.27,76,Wunderground v.1.15,2013-09-13 13:51:00,
2013-09-13 07:56:00,53.3,51.6,29.74,SSE,161,7.0,9.0,94,0.00,,,0.27,63,Wunderground v.1.15,2013-09-13 13:56:00,
2013-09-13 08:03:00,53.3,51.6,29.74,SSE,162,9.0,11.0,94,0.00,,,0.27,76,Wunderground v.1.15,2013-09-13 14:03:00,
2013-09-13 08:08:00,53.5,51.8,29.74,SSE,161,10.0,12.0,94,0.00,,,0.27,142,Wunderground v.1.15,2013-09-13 14:08:00,
2013-09-13 08:13:00,53.5,51.8,29.74,SSE,158,14.0,14.0,94,0.00,,,0.27,102,Wunderground v.1.15,2013-09-13 14:13:00,
2013-09-13 08:18:00,53.6,51.9,29.74,SSE,161,11.0,14.0,94,0.00,,,0.27,192,Wunderground v.1.15,2013-09-13 14:18:00,
2013-09-13 08:24:00,53.9,52.5,29.74,SSE,163,11.0,16.0,95,0.00,,,0.27,193,Wunderground v.1.15,2013-09-13 14:24:00,
2013-09-13 08:29:00,54.4,53.0,29.73,SSE,163,12.0,16.0,95,0.00,,,0.27,378,Wunderground v.1.15,2013-09-13 14:29:00,
2013-09-13 08:34:00,54.8,53.4,29.73,SSE,161,5.0,14.0,95,0.00,,,0.27,450,Wunderground v.1.15,2013-09-13 14:34:00,
2013-09-13 08:39:00,55.1,53.7,29.73,SSE,156,9.0,15.0,95,0.00,,,0.27,209,Wunderground v.1.15,2013-09-13 14:39:00,
2013-09-13 08:44:00,55.4,53.7,29.73,SSE,156,10.0,13.0,94,0.00,,,0.27,276,Wunderground v.1.15,2013-09-13 14:44:00,
2013-09-13 08:49:00,55.6,53.9,29.73,SSE,153,10.0,14.0,94,0.00,,,0.27,200,Wunderground v.1.15,2013-09-13 14:49:00,
2013-09-13 08:54:00,55.6,53.9,29.73,SSE,155,6.0,12.0,94,0.00,,,0.27,163,Wunderground v.1.15,2013-09-13 14:54:00,
2013-09-13 08:59:00,55.6,53.9,29.74,SSE,155,8.0,12.0,94,0.00,,,0.27,155,Wunderground v.1.15,2013-09-13 14:59:00,
2013-09-13 09:04:00,55.6,53.6,29.74,SSE,150,10.0,11.0,93,0.00,,,0.27,113,Wunderground v.1.15,2013-09-13 15:04:00,
2013-09-13 09:09:00,55.6,53.6,29.74,SSE,150,5.0,11.0,93,0.00,,,0.27,130,Wunderground v.1.15,2013-09-13 15:09:00,
2013-09-13 09:14:00,55.6,53.6,29.74,SSE,149,7.0,8.0,93,0.00,,,0.27,158,Wunderground v.1.15,2013-09-13 15:14:00,
2013-09-13 09:19:00,55.6,53.6,29.74,SSE,149,8.0,8.0,93,0.00,,,0.27,206,Wunderground v.1.15,2013-09-13 15:19:00,
2013-09-13 09:24:00,55.7,53.7,29.74,SSE,148,5.0,8.0,93,0.00,,,0.27,206,Wunderground v.1.15,2013-09-13 15:24:00,
2013-09-13 09:29:00,55.7,53.4,29.74,SSE,149,6.0,10.0,92,0.00,,,0.27,204,Wunderground v.1.15,2013-09-13 15:29:00,
2013-09-13 09:34:00,55.9,53.6,29.74,SSE,149,2.0,7.0,92,0.00,,,0.27,230,Wunderground v.1.15,2013-09-13 15:34:00,
2013-09-13 09:39:00,56.0,53.7,29.74,SSE,149,0.0,7.0,92,0.00,,,0.27,230,Wunderground v.1.15,2013-09-13 15:39:00,
2013-09-13 09:44:00,56.2,53.9,29.74,SSE,149,0.0,2.0,92,0.00,,,0.27,214,Wunderground v.1.15,2013-09-13 15:44:00,
2013-09-13 09:49:00,56.3,54.0,29.74,SSE,149,0.0,2.0,92,0.00,,,0.27,216,Wunderground v.1.15,2013-09-13 15:49:00,
2013-09-13 09:54:00,56.3,53.7,29.74,SSE,149,5.0,7.0,91,0.00,,,0.27,213,Wunderground v.1.15,2013-09-13 15:54:00,
2013-09-13 09:59:00,56.5,53.9,29.74,SSE,149,5.0,7.0,91,0.00,,,0.27,172,Wunderground v.1.15,2013-09-13 15:59:00,
2013-09-13 10:04:00,56.6,54.0,29.74,SSE,149,6.0,9.0,91,0.00,,,0.27,186,Wunderground v.1.15,2013-09-13 16:04:00,
2013-09-13 10:09:00,56.6,54.0,29.74,SSE,149,6.0,9.0,91,0.00,,,0.27,181,Wunderground v.1.15,2013-09-13 16:09:00,
2013-09-13 10:14:00,56.6,53.7,29.75,SSE,149,10.0,10.0,90,0.00,,,0.27,156,Wunderground v.1.15,2013-09-13 16:14:00,
2013-09-13 10:19:00,56.5,53.3,29.75,SSE,149,5.0,10.0,89,0.00,,,0.27,169,Wunderground v.1.15,2013-09-13 16:19:00,
2013-09-13 10:24:00,56.5,53.3,29.75,SSE,153,9.0,9.0,89,0.00,,,0.27,165,Wunderground v.1.15,2013-09-13 16:24:00,
2013-09-13 10:29:00,56.3,52.8,29.74,SSE,154,7.0,10.0,88,0.00,,,0.27,190,Wunderground v.1.15,2013-09-13 16:29:00,
2013-09-13 10:34:00,56.5,53.0,29.74,SSE,153,9.0,9.0,88,0.00,,,0.27,213,Wunderground v.1.15,2013-09-13 16:34:00,
2013-09-13 10:39:00,56.5,53.0,29.74,SSE,153,8.0,11.0,88,0.00,,,0.27,213,Wunderground v.1.15,2013-09-13 16:39:00,
2013-09-13 10:44:00,56.6,53.1,29.74,SSE,153,2.0,7.0,88,0.00,,,0.27,230,Wunderground v.1.15,2013-09-13 16:44:00,
2013-09-13 10:49:00,56.6,53.1,29.74,SSE,155,2.0,8.0,88,0.00,,,0.27,241,Wunderground v.1.15,2013-09-13 16:49:00,
2013-09-13 10:54:00,56.7,52.9,29.74,SSE,155,4.0,7.0,87,0.00,,,0.27,262,Wunderground v.1.15,2013-09-13 16:54:00,
2013-09-13 10:59:00,56.9,53.1,29.73,SSE,155,0.0,7.0,87,0.00,,,0.27,278,Wunderground v.1.15,2013-09-13 16:59:00,
2013-09-13 11:04:00,57.0,53.2,29.73,SSE,155,0.0,2.0,87,0.00,,,0.27,278,Wunderground v.1.15,2013-09-13 17:04:00,
2013-09-13 11:09:00,57.2,53.0,29.73,SSE,155,0.0,2.0,86,0.00,,,0.27,279,Wunderground v.1.15,2013-09-13 17:09:00,
2013-09-13 11:14:00,57.5,53.3,29.74,SSE,155,0.0,0.0,86,0.00,,,0.27,262,Wunderground v.1.15,2013-09-13 17:14:00,
2013-09-13 11:19:00,57.6,53.4,29.74,SSE,155,0.0,0.0,86,0.00,,,0.27,251,Wunderground v.1.15,2013-09-13 17:19:00,
2013-09-13 11:24:00,57.8,53.3,29.74,SSE,155,0.0,0.0,85,0.00,,,0.27,258,Wunderground v.1.15,2013-09-13 17:24:00,
2013-09-13 11:29:00,58.0,53.8,29.75,SSE,155,0.0,0.0,86,0.00,,,0.27,239,Wunderground v.1.15,2013-09-13 17:29:00,
2013-09-13 11:34:00,58.1,53.6,29.75,SSE,155,0.0,0.0,85,0.00,,,0.27,248,Wunderground v.1.15,2013-09-13 17:34:00,
2013-09-13 11:39:00,58.3,53.2,29.75,SSE,155,0.0,0.0,83,0.00,,,0.27,220,Wunderground v.1.15,2013-09-13 17:39:00,
2013-09-13 11:44:00,58.3,53.2,29.74,SSE,155,0.0,0.0,83,0.00,,,0.27,211,Wunderground v.1.15,2013-09-13 17:44:00,
2013-09-13 11:49:00,58.3,52.8,29.74,SSE,155,0.0,0.0,82,0.00,,,0.27,209,Wunderground v.1.15,2013-09-13 17:49:00,
2013-09-13 11:54:00,58.3,53.2,29.74,SSE,155,0.0,0.0,83,0.00,,,0.27,200,Wunderground v.1.15,2013-09-13 17:54:00,
2013-09-13 11:59:00,58.4,52.9,29.73,SSE,155,0.0,0.0,82,0.00,,,0.27,197,Wunderground v.1.15,2013-09-13 17:59:00,
2013-09-13 12:04:00,58.4,53.3,29.73,SSE,155,0.0,0.0,83,0.00,,,0.27,178,Wunderground v.1.15,2013-09-13 18:04:00,
2013-09-13 12:09:00,58.4,53.3,29.73,SSE,155,0.0,0.0,83,0.00,,,0.27,179,Wunderground v.1.15,2013-09-13 18:09:00,
2013-09-13 12:14:00,58.4,53.3,29.73,SSE,155,0.0,6.0,83,0.00,,,0.27,113,Wunderground v.1.15,2013-09-13 18:14:00,
2013-09-13 12:19:00,58.4,53.3,29.73,SSE,155,8.0,12.0,83,0.00,,,0.27,137,Wunderground v.1.15,2013-09-13 18:19:00,
2013-09-13 12:24:00,58.4,53.6,29.73,SSE,155,11.0,12.0,84,0.00,,,0.27,120,Wunderground v.1.15,2013-09-13 18:24:00,
2013-09-13 12:29:00,58.3,53.5,29.73,SSE,155,12.0,16.0,84,0.00,,,0.27,128,Wunderground v.1.15,2013-09-13 18:29:00,
2013-09-13 12:36:00,58.1,53.3,29.73,SSE,154,14.0,18.0,84,0.00,,,0.27,172,Wunderground v.1.15,2013-09-13 18:36:00,
2013-09-13 12:41:00,57.6,52.5,29.73,SSE,161,14.0,18.0,83,0.00,,,0.27,153,Wunderground v.1.15,2013-09-13 18:41:00,
2013-09-13 12:46:00,57.5,52.4,29.73,SSE,165,16.0,18.0,83,0.00,,,0.27,118,Wunderground v.1.15,2013-09-13 18:46:00,
2013-09-13 12:51:00,57.2,52.1,29.73,SSE,160,14.0,19.0,83,0.00,,,0.27,113,Wunderground v.1.15,2013-09-13 18:51:00,
2013-09-13 12:56:00,57.0,52.2,29.73,SSE,163,18.0,20.0,84,0.00,,,0.27,176,Wunderground v.1.15,2013-09-13 18:56:00,
2013-09-13 13:01:00,56.9,52.4,29.73,SSE,167,22.0,22.0,85,0.00,,,0.27,295,Wunderground v.1.15,2013-09-13 19:01:00,
2013-09-13 13:06:00,56.5,51.1,29.73,South,171,16.0,22.0,82,0.00,,,0.27,320,Wunderground v.1.15,2013-09-13 19:06:00,
2013-09-13 13:11:00,56.5,51.4,29.73,SSE,164,18.0,23.0,83,0.00,,,0.27,301,Wunderground v.1.15,2013-09-13 19:11:00,
2013-09-13 13:17:00,56.5,51.1,29.74,South,171,11.0,24.0,82,0.00,,,0.27,292,Wunderground v.1.15,2013-09-13 19:17:00,
2013-09-13 13:22:00,56.5,51.1,29.74,SSE,165,11.0,18.0,82,0.00,,,0.27,306,Wunderground v.1.15,2013-09-13 19:22:00,
2013-09-13 13:27:00,56.5,51.1,29.74,South,170,12.0,23.0,82,0.00,,,0.27,313,Wunderground v.1.15,2013-09-13 19:27:00,
2013-09-13 13:32:00,56.6,51.2,29.74,SSE,163,15.0,21.0,82,0.00,,,0.27,315,Wunderground v.1.15,2013-09-13 19:32:00,
2013-09-13 13:37:00,56.7,51.3,29.74,SSE,158,18.0,22.0,82,0.00,,,0.27,318,Wunderground v.1.15,2013-09-13 19:37:00,
2013-09-13 13:42:00,56.7,51.3,29.74,SSE,153,20.0,21.0,82,0.00,,,0.27,329,Wunderground v.1.15,2013-09-13 19:42:00,
2013-09-13 13:47:00,56.7,51.3,29.73,SSE,161,17.0,21.0,82,0.00,,,0.27,322,Wunderground v.1.15,2013-09-13 19:47:00,
2013-09-13 13:52:00,56.9,51.5,29.73,SSE,159,18.0,21.0,82,0.00,,,0.27,309,Wunderground v.1.15,2013-09-13 19:52:00,
2013-09-13 13:57:00,57.0,51.2,29.73,SSE,157,19.0,22.0,81,0.00,,,0.27,343,Wunderground v.1.15,2013-09-13 19:57:00,
2013-09-13 14:02:00,57.0,51.2,29.74,SSE,165,12.0,23.0,81,0.00,,,0.27,380,Wunderground v.1.15,2013-09-13 20:02:00,
2013-09-13 14:07:00,57.0,50.5,29.74,SSE,154,14.0,25.0,79,0.00,,,0.27,410,Wunderground v.1.15,2013-09-13 20:07:00,
2013-09-13 14:12:00,57.3,50.8,29.74,SSE,157,17.0,22.0,79,0.00,,,0.27,439,Wunderground v.1.15,2013-09-13 20:12:00,
2013-09-13 14:17:00,57.6,51.5,29.73,SSE,155,10.0,22.0,80,0.00,,,0.27,408,Wunderground v.1.15,2013-09-13 20:17:00,
2013-09-13 14:23:00,57.8,51.0,29.73,SSE,165,9.0,20.0,78,0.00,,,0.27,348,Wunderground v.1.15,2013-09-13 20:23:00,
2013-09-13 14:28:00,58.0,50.8,29.73,SSE,166,22.0,22.0,77,0.00,,,0.27,341,Wunderground v.1.15,2013-09-13 20:28:00,
2013-09-13 14:33:00,58.0,50.8,29.73,SSE,160,14.0,20.0,77,0.00,,,0.27,336,Wunderground v.1.15,2013-09-13 20:33:00,
2013-09-13 14:38:00,57.8,50.3,29.73,SSE,158,16.0,22.0,76,0.00,,,0.27,329,Wunderground v.1.15,2013-09-13 20:38:00,
2013-09-13 14:44:00,57.6,50.1,29.73,SSE,159,17.0,24.0,76,0.00,,,0.27,334,Wunderground v.1.15,2013-09-13 20:44:00,
2013-09-13 14:49:00,57.5,50.0,29.73,SSE,148,15.0,24.0,76,0.00,,,0.27,345,Wunderground v.1.15,2013-09-13 20:49:00,
2013-09-13 14:54:00,57.3,50.1,29.73,SSE,153,19.0,23.0,77,0.00,,,0.27,339,Wunderground v.1.15,2013-09-13 20:54:00,
2013-09-13 14:59:00,57.0,49.2,29.72,SSE,164,23.0,24.0,75,0.00,,,0.27,346,Wunderground v.1.15,2013-09-13 20:59:00,
2013-09-13 15:04:00,57.0,49.9,29.72,SSE,157,22.0,24.0,77,0.00,,,0.27,352,Wunderground v.1.15,2013-09-13 21:04:00,
2013-09-13 15:09:00,57.0,49.9,29.72,SSE,161,18.0,24.0,77,0.00,,,0.27,380,Wunderground v.1.15,2013-09-13 21:09:00,
2013-09-13 15:14:00,57.0,49.9,29.72,SSE,165,20.0,22.0,77,0.00,,,0.27,385,Wunderground v.1.15,2013-09-13 21:14:00,
2013-09-13 15:19:00,57.0,49.5,29.72,South,169,22.0,23.0,76,0.00,,,0.27,332,Wunderground v.1.15,2013-09-13 21:19:00,
2013-09-13 15:24:00,57.2,50.4,29.72,SSE,151,17.0,22.0,78,0.00,,,0.27,357,Wunderground v.1.15,2013-09-13 21:24:00,
2013-09-13 15:29:00,57.3,50.5,29.72,SSE,147,12.0,27.0,78,0.00,,,0.27,603,Wunderground v.1.15,2013-09-13 21:29:00,
2013-09-13 15:34:00,57.6,50.4,29.72,SSE,155,15.0,23.0,77,0.00,,,0.27,534,Wunderground v.1.15,2013-09-13 21:34:00,
2013-09-13 15:39:00,57.8,49.9,29.72,SE,144,19.0,27.0,75,0.00,,,0.27,446,Wunderground v.1.15,2013-09-13 21:39:00,
2013-09-13 15:44:00,58.1,50.2,29.72,SE,146,15.0,26.0,75,0.00,,,0.27,608,Wunderground v.1.15,2013-09-13 21:44:00,
2013-09-13 15:49:00,58.4,50.5,29.72,SSE,159,22.0,26.0,75,0.00,,,0.27,519,Wunderground v.1.15,2013-09-13 21:49:00,
2013-09-13 15:54:00,58.4,50.1,29.72,SSE,168,17.0,22.0,74,0.00,,,0.27,355,Wunderground v.1.15,2013-09-13 21:54:00,
2013-09-13 15:59:00,58.6,50.7,29.71,SE,146,22.0,24.0,75,0.00,,,0.27,650,Wunderground v.1.15,2013-09-13 21:59:00,
2013-09-13 16:04:00,58.7,50.8,29.71,SE,137,21.0,25.0,75,0.00,,,0.27,527,Wunderground v.1.15,2013-09-13 22:04:00,
2013-09-13 16:09:00,58.9,51.0,29.71,SSE,152,14.0,25.0,75,0.00,,,0.27,490,Wunderground v.1.15,2013-09-13 22:09:00,
2013-09-13 16:14:00,58.9,50.3,29.71,SSE,157,14.0,21.0,73,0.00,,,0.27,622,Wunderground v.1.15,2013-09-13 22:14:00,
2013-09-13 16:19:00,59.0,50.4,29.71,SSE,155,12.0,21.0,73,0.00,,,0.27,598,Wunderground v.1.15,2013-09-13 22:19:00,
2013-09-13 16:24:00,59.2,50.9,29.71,SSE,148,19.0,23.0,74,0.00,,,0.27,318,Wunderground v.1.15,2013-09-13 22:24:00,
2013-09-13 16:29:00,59.2,51.3,29.71,SE,144,14.0,25.0,75,0.00,,,0.27,445,Wunderground v.1.15,2013-09-13 22:29:00,
2013-09-13 16:35:00,59.2,50.5,29.71,SE,146,19.0,19.0,73,0.00,,,0.27,165,Wunderground v.1.15,2013-09-13 22:35:00,
2013-09-13 16:40:00,58.9,50.3,29.71,SSE,161,10.0,14.0,73,0.00,,,0.27,139,Wunderground v.1.15,2013-09-13 22:40:00,
2013-09-13 16:45:00,58.6,50.7,29.71,SSE,150,11.0,17.0,75,0.00,,,0.27,127,Wunderground v.1.15,2013-09-13 22:45:00,
2013-09-13 16:50:00,58.1,50.2,29.71,SSE,160,9.0,12.0,75,0.00,,,0.27,114,Wunderground v.1.15,2013-09-13 22:50:00,
2013-09-13 16:56:00,57.8,50.3,29.71,SSE,153,10.0,15.0,76,0.00,,,0.27,137,Wunderground v.1.15,2013-09-13 22:56:00,
2013-09-13 17:01:00,57.6,50.4,29.71,SSE,150,12.0,14.0,77,0.00,,,0.27,206,Wunderground v.1.15,2013-09-13 23:01:00,
2013-09-13 17:06:00,57.6,50.8,29.71,SSE,148,10.0,17.0,78,0.00,,,0.27,519,Wunderground v.1.15,2013-09-13 23:06:00,
2013-09-13 17:11:00,58.1,51.3,29.71,SE,140,11.0,12.0,78,0.00,,,0.27,229,Wunderground v.1.15,2013-09-13 23:11:00,
2013-09-13 17:16:00,58.3,51.1,29.71,SE,126,11.0,13.0,77,0.00,,,0.27,287,Wunderground v.1.15,2013-09-13 23:16:00,
2013-09-13 17:21:00,58.6,51.8,29.71,ESE,119,8.0,15.0,78,0.00,,,0.27,471,Wunderground v.1.15,2013-09-13 23:21:00,
2013-09-13 17:26:00,58.9,51.3,29.71,ESE,116,6.0,15.0,76,0.00,,,0.27,492,Wunderground v.1.15,2013-09-13 23:26:00,
2013-09-13 17:31:00,59.3,52.1,29.71,ESE,116,9.0,11.0,77,0.00,,,0.27,476,Wunderground v.1.15,2013-09-13 23:31:00,
2013-09-13 17:36:00,59.5,51.2,29.71,SE,127,14.0,14.0,74,0.00,,,0.27,383,Wunderground v.1.15,2013-09-13 23:36:00,
2013-09-13 17:41:00,59.6,50.9,29.71,SE,130,6.0,9.0,73,0.00,,,0.27,322,Wunderground v.1.15,2013-09-13 23:41:00,
2013-09-13 17:46:00,59.8,51.1,29.71,SE,130,4.0,11.0,73,0.00,,,0.27,357,Wunderground v.1.15,2013-09-13 23:46:00,
2013-09-13 17:51:00,59.8,51.1,29.71,SE,130,8.0,11.0,73,0.00,,,0.27,302,Wunderground v.1.15,2013-09-13 23:51:00,
2013-09-13 17:56:00,59.9,51.6,29.71,SE,130,6.0,11.0,74,0.00,,,0.27,302,Wunderground v.1.15,2013-09-13 23:56:00,
2013-09-13 18:01:00,59.8,51.1,29.71,SE,130,0.0,8.0,73,0.00,,,0.27,359,Wunderground v.1.15,2013-09-14 00:01:00,
2013-09-13 18:06:00,59.9,51.2,29.71,SE,129,5.0,11.0,73,0.00,,,0.27,301,Wunderground v.1.15,2013-09-14 00:06:00,
2013-09-13 18:11:00,59.8,51.1,29.71,SE,129,7.0,8.0,73,0.00,,,0.27,221,Wunderground v.1.15,2013-09-14 00:11:00,
2013-09-13 18:16:00,59.6,50.9,29.71,SE,129,4.0,8.0,73,0.00,,,0.27,227,Wunderground v.1.15,2013-09-14 00:16:00,
2013-09-13 18:21:00,59.3,50.6,29.71,SE,129,1.0,8.0,73,0.00,,,0.27,79,Wunderground v.1.15,2013-09-14 00:21:00,
2013-09-13 18:26:00,59.2,50.9,29.71,SE,129,4.0,8.0,74,0.00,,,0.27,54,Wunderground v.1.15,2013-09-14 00:26:00,
2013-09-13 18:31:00,58.7,50.4,29.72,SE,129,2.0,8.0,74,0.00,,,0.27,62,Wunderground v.1.15,2013-09-14 00:31:00,
2013-09-13 18:37:00,58.6,50.7,29.72,SE,129,4.0,8.0,75,0.00,,,0.27,32,Wunderground v.1.15,2013-09-14 00:37:00,
2013-09-13 18:42:00,58.3,50.4,29.72,SE,129,6.0,6.0,75,0.00,,,0.27,32,Wunderground v.1.15,2013-09-14 00:42:00,
2013-09-13 18:47:00,58.1,50.6,29.72,SE,129,0.0,7.0,76,0.00,,,0.27,32,Wunderground v.1.15,2013-09-14 00:47:00,
2013-09-13 18:52:00,58.0,51.2,29.72,SE,129,0.0,2.0,78,0.00,,,0.27,12,Wunderground v.1.15,2013-09-14 00:52:00,
2013-09-13 18:57:00,57.8,51.0,29.72,SE,129,0.0,2.0,78,0.00,,,0.27,7,Wunderground v.1.15,2013-09-14 00:57:00,
2013-09-13 19:03:00,57.5,50.7,29.71,SE,129,0.0,0.0,78,0.00,,,0.27,5,Wunderground v.1.15,2013-09-14 01:03:00,
2013-09-13 19:08:00,57.3,50.8,29.71,SE,129,0.0,0.0,79,0.00,,,0.27,0,Wunderground v.1.15,2013-09-14 01:08:00,
2013-09-13 19:14:00,57.3,50.8,29.71,SE,129,0.0,0.0,79,0.00,,,0.27,0,Wunderground v.1.15,2013-09-14 01:14:00,
2013-09-13 19:19:00,57.2,51.1,29.71,SE,129,0.0,0.0,80,0.00,,,0.27,0,Wunderground v.1.15,2013-09-14 01:19:00,
2013-09-13 19:24:00,57.0,50.9,29.71,SE,129,0.0,0.0,80,0.00,,,0.27,0,Wunderground v.1.15,2013-09-14 01:24:00,
2013-09-13 19:29:00,57.0,50.9,29.71,SE,129,0.0,0.0,80,0.00,,,0.27,0,Wunderground v.1.15,2013-09-14 01:29:00,
2013-09-13 19:34:00,56.9,51.1,29.71,SE,129,0.0,0.0,81,0.00,,,0.27,0,Wunderground v.1.15,2013-09-14 01:34:00,
2013-09-13 19:39:00,56.7,50.9,29.71,SE,129,1.0,6.0,81,0.00,,,0.27,0,Wunderground v.1.15,2013-09-14 01:39:00,
2013-09-13 19:44:00,56.6,51.2,29.71,SE,129,0.0,4.0,82,0.00,,,0.27,0,Wunderground v.1.15,2013-09-14 01:44:00,
2013-09-13 19:49:00,56.6,51.2,29.71,SE,129,0.0,4.0,82,0.00,,,0.27,0,Wunderground v.1.15,2013-09-14 01:49:00,
2013-09-13 19:54:00,56.5,51.1,29.71,SE,129,0.0,0.0,82,0.00,,,0.27,0,Wunderground v.1.15,2013-09-14 01:54:00,
2013-09-13 19:59:00,56.3,50.9,29.72,SE,129,0.0,0.0,82,0.00,,,0.27,0,Wunderground v.1.15,2013-09-14 01:59:00,
2013-09-13 20:04:00,56.3,51.2,29.72,SE,129,0.0,0.0,83,0.00,,,0.27,0,Wunderground v.1.15,2013-09-14 02:04:00,
2013-09-13 20:09:00,56.2,51.1,29.72,SE,129,0.0,0.0,83,0.00,,,0.27,0,Wunderground v.1.15,2013-09-14 02:09:00,
2013-09-13 20:14:00,56.0,50.9,29.72,SE,129,0.0,0.0,83,0.00,,,0.27,0,Wunderground v.1.15,2013-09-14 02:14:00,
2013-09-13 20:19:00,56.0,50.9,29.72,SE,129,0.0,0.0,83,0.00,,,0.27,0,Wunderground v.1.15,2013-09-14 02:19:00,
2013-09-13 20:24:00,55.9,50.8,29.72,SE,129,0.0,0.0,83,0.00,,,0.27,0,Wunderground v.1.15,2013-09-14 02:24:00,
2013-09-13 20:29:00,55.9,50.8,29.73,SE,129,0.0,0.0,83,0.00,,,0.27,0,Wunderground v.1.15,2013-09-14 02:29:00,
2013-09-13 20:34:00,55.9,51.1,29.73,SE,129,2.0,6.0,84,0.00,,,0.27,0,Wunderground v.1.15,2013-09-14 02:34:00,
2013-09-13 20:39:00,55.7,50.9,29.73,SE,129,0.0,6.0,84,0.00,,,0.27,0,Wunderground v.1.15,2013-09-14 02:39:00,
2013-09-13 20:44:00,55.7,50.9,29.74,SE,129,0.0,2.0,84,0.00,,,0.27,0,Wunderground v.1.15,2013-09-14 02:44:00,
2013-09-13 20:49:00,55.6,50.8,29.74,SE,129,0.0,2.0,84,0.00,,,0.27,0,Wunderground v.1.15,2013-09-14 02:49:00,
2013-09-13 20:54:00,55.6,50.8,29.74,SE,129,2.0,5.0,84,0.00,,,0.27,0,Wunderground v.1.15,2013-09-14 02:54:00,
2013-09-13 20:59:00,55.6,51.2,29.75,SE,129,0.0,5.0,85,0.00,,,0.27,0,Wunderground v.1.15,2013-09-14 02:59:00,
2013-09-13 21:04:00,55.6,51.2,29.75,SE,129,4.0,6.0,85,0.00,,,0.27,0,Wunderground v.1.15,2013-09-14 03:04:00,
2013-09-13 21:09:00,55.6,50.8,29.75,SE,129,4.0,8.0,84,0.00,,,0.27,0,Wunderground v.1.15,2013-09-14 03:09:00,
2013-09-13 21:14:00,55.4,50.6,29.75,SE,129,2.0,8.0,84,0.00,,,0.27,0,Wunderground v.1.15,2013-09-14 03:14:00,
2013-09-13 21:19:00,55.3,50.5,29.75,SE,129,1.0,8.0,84,0.00,,,0.27,0,Wunderground v.1.15,2013-09-14 03:19:00,
2013-09-13 21:24:00,55.3,50.5,29.75,SE,129,2.0,5.0,84,0.00,,,0.27,0,Wunderground v.1.15,2013-09-14 03:24:00,
2013-09-13 21:29:00,55.3,50.5,29.75,SE,129,0.0,6.0,84,0.00,,,0.27,0,Wunderground v.1.15,2013-09-14 03:29:00,
2013-09-13 21:34:00,55.1,50.7,29.75,SE,129,6.0,6.0,85,0.00,,,0.27,0,Wunderground v.1.15,2013-09-14 03:34:00,
2013-09-13 21:40:00,55.1,50.7,29.75,SE,129,4.0,4.0,85,0.00,,,0.27,0,Wunderground v.1.15,2013-09-14 03:40:00,
2013-09-13 21:45:00,55.0,50.6,29.75,SE,129,1.0,6.0,85,0.00,,,0.27,0,Wunderground v.1.15,2013-09-14 03:45:00,
2013-09-13 21:50:00,54.8,50.4,29.75,SE,129,0.0,2.0,85,0.00,,,0.27,0,Wunderground v.1.15,2013-09-14 03:50:00,
2013-09-13 21:55:00,54.7,50.6,29.75,SE,129,0.0,5.0,86,0.00,,,0.27,0,Wunderground v.1.15,2013-09-14 03:55:00,
2013-09-13 22:00:00,54.7,50.6,29.76,SE,129,5.0,6.0,86,0.00,,,0.27,0,Wunderground v.1.15,2013-09-14 04:00:00,
2013-09-13 22:01:00,54.7,50.6,29.76,SE,129,5.0,6.0,86,0.00,,,0.27,0,Wunderground v.1.15,2013-09-14 04:01:00,
2013-09-13 22:02:00,54.7,50.6,29.76,SE,129,5.0,6.0,86,0.00,,,0.27,0,Wunderground v.1.15,2013-09-14 04:02:00,
2013-09-13 22:07:00,54.5,50.4,29.76,SE,129,6.0,7.0,86,0.00,,,0.27,0,Wunderground v.1.15,2013-09-14 04:07:00,
2013-09-13 22:12:00,54.4,50.3,29.76,SE,129,4.0,6.0,86,0.00,,,0.27,0,Wunderground v.1.15,2013-09-14 04:12:00,
2013-09-13 22:17:00,54.2,50.1,29.75,SE,129,5.0,8.0,86,0.00,,,0.27,0,Wunderground v.1.15,2013-09-14 04:17:00,
2013-09-13 22:23:00,53.9,49.8,29.75,SE,129,6.0,8.0,86,0.00,,,0.27,0,Wunderground v.1.15,2013-09-14 04:23:00,
2013-09-13 22:28:00,53.8,49.7,29.75,SE,129,2.0,8.0,86,0.00,,,0.27,0,Wunderground v.1.15,2013-09-14 04:28:00,
2013-09-13 22:33:00,53.6,49.5,29.76,SE,129,0.0,4.0,86,0.00,,,0.27,0,Wunderground v.1.15,2013-09-14 04:33:00,
2013-09-13 22:38:00,53.5,49.4,29.76,SE,129,4.0,5.0,86,0.00,,,0.27,0,Wunderground v.1.15,2013-09-14 04:38:00,
2013-09-13 22:43:00,53.3,49.5,29.76,SE,129,5.0,5.0,87,0.00,,,0.27,0,Wunderground v.1.15,2013-09-14 04:43:00,
2013-09-13 22:48:00,53.3,49.5,29.76,SE,129,2.0,6.0,87,0.00,,,0.27,0,Wunderground v.1.15,2013-09-14 04:48:00,
2013-09-13 22:53:00,53.2,49.4,29.76,SE,129,0.0,4.0,87,0.00,,,0.27,0,Wunderground v.1.15,2013-09-14 04:53:00,
2013-09-13 22:58:00,53.1,49.3,29.76,SE,129,0.0,4.0,87,0.00,,,0.27,0,Wunderground v.1.15,2013-09-14 04:58:00,
2013-09-13 23:03:00,53.1,49.3,29.75,SE,129,0.0,0.0,87,0.00,,,0.27,0,Wunderground v.1.15,2013-09-14 05:03:00,
2013-09-13 23:08:00,52.9,49.4,29.75,SE,129,0.0,0.0,88,0.00,,,0.27,0,Wunderground v.1.15,2013-09-14 05:08:00,
2013-09-13 23:13:00,52.8,49.0,29.75,SE,129,0.0,0.0,87,0.00,,,0.27,0,Wunderground v.1.15,2013-09-14 05:13:00,
2013-09-13 23:18:00,52.8,49.0,29.75,SE,129,0.0,0.0,87,0.00,,,0.27,0,Wunderground v.1.15,2013-09-14 05:18:00,
2013-09-13 23:23:00,52.6,48.8,29.75,SE,129,0.0,0.0,87,0.00,,,0.27,0,Wunderground v.1.15,2013-09-14 05:23:00,
2013-09-13 23:29:00,52.5,48.7,29.75,SE,129,0.0,0.0,87,0.00,,,0.27,0,Wunderground v.1.15,2013-09-14 05:29:00,
2013-09-13 23:34:00,52.5,49.0,29.75,SE,129,0.0,0.0,88,0.00,,,0.27,0,Wunderground v.1.15,2013-09-14 05:34:00,
2013-09-13 23:38:00,52.3,48.9,29.75,SE,129,0.0,0.0,88,0.00,,,0.27,0,Wunderground v.1.15,2013-09-14 05:38:00,
2013-09-13 23:43:00,52.3,48.9,29.75,SE,129,0.0,0.0,88,0.00,,,0.27,0,Wunderground v.1.15,2013-09-14 05:43:00,
2013-09-13 23:49:00,52.3,49.2,29.75,SE,129,0.0,0.0,89,0.00,,,0.27,0,Wunderground v.1.15,2013-09-14 05:49:00,
2013-09-13 23:54:00,52.3,49.2,29.75,SE,129,0.0,0.0,89,0.00,,,0.27,0,Wunderground v.1.15,2013-09-14 05:54:00,
2013-09-13 23:59:00,52.3,49.2,29.75,SE,129,0.0,0.0,89,0.00,,,0.27,0,Wunderground v.1.15,2013-09-14 05:59:00,